Back to catalog

ICEYE-X79

AliveScienceSSO
NORAD 69870·PAYLOAD·🇨🇦 Canada

Launched Jul 7, 2026 from Vandenberg Space Force Base

Loading…

Next Passes (next 24 hours)

TLE

FreshSource: Space-Track

Epoch: Sep 14, 2026, 10:21 UTC

1 69870U 26156B   26257.43136307  .00001887  00000-0  19225-3 0  9995
2 69870  97.7433 156.7077 0005201 284.1075  75.9566 14.91873232 10305

Track ICEYE-X79 in real time with AllMySat

Download on the App Store